Location: Ciserano
(45.5833°N, 9.6000°E)
Time: 01:36:21
(UTC+00:00)

FALCON 9 DEB - Pass Details

Date: 16 April 2021
Orbit: 369 x 385 km, 53.0° (Epoch: 10 May)

Event Time Altitude Azimuth Distance (km) Brightness Sun altitude
Exits shadow 01:14:57 13° 40° (NE) 1,200 6.2 -28.7°
Drops below altitude 10° 01:15:36 10° 49° (NE) 1,384 6.5 -28.6°
Sets 01:18:00 0° 67° (ENE) 2,239 7.5 -28.4°
